Location: Sweet Grass
(48.9965°N, 111.9649°W)
Time: 12:17:31
(UTC+00:00)

Envisat - Pass Details

Date: 08 December 2022
Orbit: 763 x 765 km, 98.2° (Epoch: 06 February)

Event Time Altitude Azimuth Distance (km) Brightness Sun altitude
Rises 12:52:39 0° 6° (N) 3,246 6.2 -21.3°
Reaches altitude 10° 12:55:11 10° 356° (N) 2,315 5.3 -20.9°
Enters shadow 12:56:59 20° 342° (NNW) 1,748 4.6 -20.6°
